Regional Weather Roundup
Issued by NWS

Home | Current Version | Previous Version | Graphics & Text | Print | Product List | Glossary Off
Versions: 1 2 3 4 5 6 7 8 9 10 11 12 13 14 15 16 17 18 19 20 21 22 23 24 25 26 27 28 29 30 31 32 33 34 35 36 37 38 39 40 41 42 43 44 45 46 47 48 49 50

000
ASUS45 KBOU 060010
RWRCO

WEATHER ROUNDUP FOR COLORADO
NATIONAL WEATHER SERVICE DENVER/BOULDER CO
600 PM MDT SUN JUL 05 2015

NOTE: "FAIR" INDICATES FEW OR NO CLOUDS BELOW 12000 FEET WITH NO
SIGNIFICANT WEATHER AND/OR OBSTRUCTIONS TO VISIBILITY.

COZ001>005-013-030-031-060100-
...NORTHWEST COLORADO...

CITY           SKY/WX    TMP DP  RH WIND       PRES   REMARKS
CRAIG          HVY RAIN  65  59  81 NW13      30.16R
HAYDEN         CLOUDY    64  55  72 S7        30.16F
MEEKER         LGT RAIN  70  57  63 CALM      30.15S
MOUNT WERNER   NOT AVBL
STEAMBOAT SPGS CLOUDY    63  56  78 E3        30.18F
WALDEN         CLOUDY    59  52  77 NW10      30.24F
$$

COZ006>008-011-060100-
...WEST CENTRAL VALLEYS...

CITY           SKY/WX    TMP DP  RH WIND       PRES   REMARKS
GRAND JUNCTION HVY RAIN  66  61  84 NW9G30    30.06R
MONTROSE       CLOUDY    71  57  61 SE17      30.14F
EAGLE          CLOUDY    70  55  60 SW14      30.17S
RIFLE          LGT RAIN  71  59  65 N6        30.09R
DELTA          CLOUDY    76  60  57 S7        30.08F
NUCLA          CLOUDY    72  59  64 E9        30.17F
$$

COZ017>023-064>068-060100-
...SOUTHWEST COLORADO...

CITY           SKY/WX    TMP DP  RH WIND       PRES   REMARKS
DURANGO        MOSUNNY   74  46  36 N15       30.14R
CORTEZ         SUNNY     80  51  36 N7G16     30.11F
PAGOSA SPRINGS PTSUNNY   75  47  36 SW6       30.21S
TELLURIDE      CLOUDY    57  53  86 CALM      30.37F
WOLF CREEK PAS NOT AVBL
$$

COZ009-010-012-014-032>034-037-058>063-060100-
...CENTRAL COLORADO...

CITY           SKY/WX    TMP DP  RH WIND       PRES   REMARKS
ASPEN          CLOUDY    64  54  69 N5        30.24S
BUENA VISTA    CLOUDY    65  54  68 S5        30.22R
COPPER MTN     HAZE      54  50  87 W6        30.53S VSB<1/4
BERTHOUD PASS  LGT RAIN  45  36  70 W13G23    30.57S
COTTONWOOD PAS NOT AVBL
GUNNISON       CLOUDY    64  52  63 SW13G20   30.27F
KREMMLING      RAIN      61  54  77 NW3G9     30.22R
LEADVILLE      CLOUDY    59  52  77 NW8       30.36S
MONARCH PASS   LGT RAIN  45  43  93 W26G33    30.63S
SALIDA         CLOUDY    72  52  48 W5        30.25S
SUNLIGHT       CLOUDY    54  54 100 CALM      30.47F FOG
WILKERSON PASS CLOUDY    55  45  67 SW6       30.49S
$$

COZ069>075-060100-
...SAN LUIS VALLEY/SANGRE DE CRISTO MOUNTAINS...

CITY           SKY/WX    TMP DP  RH WIND       PRES   REMARKS
ALAMOSA        CLOUDY    70  52  52 NE17G24   30.16F
LA VETA PASS   PTSUNNY   64  43  45 MISG      30.36F
SAGUACHE       CLOUDY    59  55  88 NW23G36   30.27R VSB 1
$$

COZ035-036-038>040-060100-
...NORTHERN COLORADO FRONT RANGE...

CITY           SKY/WX    TMP DP  RH WIND       PRES   REMARKS
DENVER INTL AP CLOUDY    72  56  57 N23G30    30.01S
DMNS CITY PARK   N/A     71  56  59 SE7       30.04R
AURORA         CLOUDY    71  57  60 W8        30.09R
FRONT RANGE AP LGT RAIN  73  57  56 NW18G30   30.04R
ERIE MUNI ARPT LGT RAIN  69  61  74 N12       30.00F
BOULDER MUN AP CLOUDY    68  61  77 NW5       30.02F
CENTENNIAL     TSTM      69  59  70 NW7       30.11R FOG
BROOMFIELD     CLOUDY    68  61  77 NW14      30.04F
FORT COLLINS   CLOUDY    66  61  82 NW9       30.04F
LONGMONT       LGT RAIN  68  63  82 NW7       30.03F
$$

COZ041-046-047-076>085-087-088-060100-
...PIKES PEAK/PALMER DIVIDE AND SOUTHERN FOOTHILLS...

CITY           SKY/WX    TMP DP  RH WIND       PRES   REMARKS
COLO. SPRINGS  CLOUDY    84  53  34 SW6       30.02R
A. F. ACADEMY  LGT RAIN  75  54  46 NW15      30.06R
ELLICOTT       CLOUDY     1 N/A N/A MISG      30.00R
FALCON         CLOUDY    80  51  36 NW10      30.09S
FORT CARSON    CLOUDY    84  55  36 SW6       29.98S
LIMON          PTSUNNY   84  58  40 CALM      29.94S
MONUMENT HILL  CLOUDY    64  55  72 NW8       30.14R
TRINIDAD       MOSUNNY   89  54  30 S16       29.97F
$$

COZ042>045-048>051-090-091-060100-
...NORTHEAST COLORADO...

CITY           SKY/WX    TMP DP  RH WIND       PRES   REMARKS
GREELEY ARPT   CLOUDY    72  57  60 NW25G37   29.98S
AKRON          LGT RAIN  75  61  61 N23       29.89R
BURLINGTON     PTSUNNY   95  48  20 W14       29.82F
WRAY           CLOUDY   102  41  12 S9        29.76F
STERLING       CLOUDY    82  59  44 N33G40      N/A
HOLYOKE        CLOUDY    81  61  50 N12       29.79F
FORT MORGAN    CLOUDY    78  55  44 W9        29.94R
$$

COZ086-089-092>099-060100-
...SOUTHEAST COLORADO...

CITY           SKY/WX    TMP DP  RH WIND       PRES   REMARKS
PUEBLO         CLOUDY    91  49  23 NW20      29.87R
LA JUNTA       CLOUDY    95  51  22 SW9       29.82S
LAMAR          CLOUDY    96  56  26 S13       29.77F
SPRINGFIELD      N/A     87  58  37 S20G32    29.89S
$$


USA.gov is the U.S. government's official web portal to all federal, state and local government web resources and services.